{"data":{"norad_id":67510,"intl_designator":"2026-012T","name":"STARLINK-36549","alt_names":[],"object_type":"PAYLOAD","status":"ACTIVE","operator":null,"country":"US","launch_date":"2026-01-18","launch_site_code":"AFETR","launch_vehicle":null,"mission":null,"orbit_class":"UNKNOWN","rcs_meters":null,"size_class":null,"mass_kg":null,"dimensions":null,"purposes":["comms"],"wikipedia_slug":null,"has_3d_model":false,"image_url":null,"decayed_at":null,"tle_current":{"epoch":"2026-09-18T13:25:02.877312Z","epoch_age_seconds":240002,"freshness":"STALE","line1":"1 67510U 26012T   26261.55906108  .00008621  00000+0  32241-3 0  9992","line2":"2 67510  43.0015 304.7278 0001312 286.5825  73.4883 15.27584659 37261","mean_motion":15.27584659,"eccentricity":0.0001312,"inclination_deg":43.0015,"raan_deg":304.7278,"arg_perigee_deg":286.5825,"mean_anomaly_deg":73.4883,"bstar":0.00032241,"rev_number":3726,"period_min":94.266461208288,"perigee_km":482.13495956757,"apogee_km":483.93533113851,"semimajor_km":6861.172145353,"source":"CELESTRAK","updated_at":"2026-09-20T09:00:43.561184Z"}}}